Weather History for KOCF - July, 2013

Change the Weather History Date:

Tuesday, July 23, 2013

  Actual Average Record
Temperature  
Mean Temperature 76 °F -  
Max Temperature 80 °F 88 °F 95 °F (1999)
Min Temperature 71 °F 70 °F 69 °F (2002)
Cooling Degree Days 10    
Growing Degree Days 26 (Base 50)    
Moisture  
Dew Point 70 °F    
Average Humidity 84    
Maximum Humidity 89    
Minimum Humidity 74    
Precipitation  
Precipitation 0.18 in - - ()
Sea Level Pressure  
Sea Level Pressure 30.03 in    
Wind  
Wind Speed 4 mph (SSW)    
Max Wind Speed 15 mph    
Max Gust Speed 26 mph    
Visibility 9 miles    
Events Rain , Thunderstorm    
Averages and records for this station are not official NWS values.
T = Trace of Precipitation, MM = Missing Value Source: NWS Daily Summary

Daily Weather History Graph

Daily Weather History Graph

Search for Another Location

Airport or City:

Trip Planner

Search our weather history database for the weather conditions in past years. The results will help you decide how hot, cold, wet, or windy it might be!

Date:

Astronomy

Jul. 23, 2013 Rise Set
Actual Time 6:44 AM EDT 8:26 PM EDT
Civil Twilight 6:18 AM EDT 8:52 PM EDT
Nautical Twilight 5:46 AM EDT 9:23 PM EDT
Astronomical Twilight 5:13 AM EDT 9:56 PM EDT
Moon 9:06 PM EDT (7/23) 7:42 AM EDT (7/23)
Length of Visible Light 14h 34m
Length of Day
13h 41m
Full, 99% of the Moon is Illuminated
Jul 23
Full
Jul 29
Last Quarter
Aug 6
New
Aug 14
First Quarter
Aug 20
Full

Hourly Weather History & Observations

Time (EDT) Temp. Heat Index Dew Point Humidity Pressure Visibility Wind Dir Wind Speed Gust Speed Precip Events Conditions
12:15 AM 75.2 °F - 69.8 °F 83% 30.08 in 10.0 mi Calm Calm - N/A   Clear
12:35 AM 75.2 °F - 69.8 °F 83% 30.08 in 10.0 mi South 4.6 mph - N/A   Clear
12:55 AM 73.4 °F - 69.8 °F 88% 30.07 in 10.0 mi South 4.6 mph - N/A   Clear
1:15 AM 73.4 °F - 69.8 °F 88% 30.07 in 10.0 mi SW 4.6 mph - N/A   Clear
1:35 AM 73.4 °F - 69.8 °F 88% 30.07 in 10.0 mi SW 4.6 mph - N/A   Clear
1:55 AM 73.4 °F - 69.8 °F 88% 30.07 in 10.0 mi SW 3.5 mph - N/A   Clear
2:15 AM 73.4 °F - 69.8 °F 88% 30.06 in 10.0 mi SSW 3.5 mph - N/A   Clear
2:35 AM 73.4 °F - 68.0 °F 83% 30.05 in 10.0 mi South 3.5 mph - N/A   Clear
2:55 AM 73.4 °F - 69.8 °F 88% 30.05 in 10.0 mi SSW 3.5 mph - N/A   Clear
3:15 AM 73.4 °F - 69.8 °F 88% 30.05 in 10.0 mi South 4.6 mph - N/A   Clear
3:35 AM 73.4 °F - 69.8 °F 88% 30.05 in 10.0 mi South 4.6 mph - N/A   Clear
3:55 AM 73.4 °F - 68.0 °F 83% 30.04 in 10.0 mi South 4.6 mph - N/A   Clear
4:15 AM 73.4 °F - 68.0 °F 83% 30.04 in 10.0 mi South 3.5 mph - N/A   Clear
4:35 AM 73.4 °F - 68.0 °F 83% 30.04 in 10.0 mi Calm Calm - N/A   Clear
4:55 AM 73.4 °F - 68.0 °F 83% 30.04 in 10.0 mi Calm Calm - N/A   Clear
5:15 AM 73.4 °F - 68.0 °F 83% 30.04 in 10.0 mi Calm Calm - N/A   Clear
5:35 AM 73.4 °F - 68.0 °F 83% 30.04 in 9.0 mi Calm Calm - N/A   Clear
5:55 AM 73.4 °F - 68.0 °F 83% 30.04 in 9.0 mi Calm Calm - N/A   Clear
6:15 AM 73.4 °F - 68.0 °F 83% 30.05 in 9.0 mi Calm Calm - N/A   Mostly Cloudy
6:35 AM 73.4 °F - 68.0 °F 83% 30.05 in 8.0 mi South 3.5 mph - N/A   Partly Cloudy
6:50 AM 73.4 °F - 68.0 °F 83% 30.05 in 8.0 mi South 4.6 mph - N/A   Scattered Clouds
7:50 AM 75.2 °F - 69.8 °F 83% 30.07 in 10.0 mi South 4.6 mph - N/A   Scattered Clouds
8:40 AM 75.2 °F - 71.6 °F 89% 30.09 in 1.5 mi West 11.5 mph 17.3 mph N/A Rain Rain
8:55 AM 73.4 °F - 69.8 °F 88% 30.08 in 3.0 mi WSW 9.2 mph - N/A Rain Light Rain
9:50 AM 73.4 °F - 68.0 °F 83% 30.08 in 6.0 mi South 4.6 mph - N/A   Mostly Cloudy
10:50 AM 73.4 °F - 69.8 °F 88% 30.08 in 8.0 mi South 4.6 mph - N/A   Mostly Cloudy
11:50 AM 77.0 °F - 71.6 °F 83% 30.07 in 8.0 mi SSW 6.9 mph - N/A   Overcast
1:05 PM 78.8 °F - 73.4 °F 83% 30.07 in 10.0 mi SSW 10.4 mph - N/A   Overcast
1:50 PM 80.6 °F 84.6 °F 71.6 °F 74% 30.06 in 10.0 mi SSW 12.7 mph - N/A   Overcast
2:50 PM 80.6 °F 84.6 °F 71.6 °F 74% 30.04 in 10.0 mi SW 15.0 mph 20.7 mph N/A   Scattered Clouds
3:50 PM 80.6 °F 84.6 °F 71.6 °F 74% 30.03 in 10.0 mi SSW 12.7 mph - N/A   Scattered Clouds
4:48 PM 78.8 °F - 71.6 °F 78% 30.06 in 2.0 mi WNW 13.8 mph 26.5 mph N/A Rain , Thunderstorm Thunderstorms and Rain
5:15 PM 71.6 °F - 64.4 °F 78% 30.04 in 10.0 mi SW 4.6 mph - N/A   Scattered Clouds
5:50 PM 71.6 °F - 66.2 °F 83% 30.00 in 10.0 mi SW 4.6 mph - N/A   Scattered Clouds
6:50 PM 75.2 °F - 69.8 °F 83% 29.97 in 10.0 mi SW 11.5 mph - N/A   Partly Cloudy
7:55 PM 75.2 °F - 71.6 °F 89% 29.98 in 10.0 mi WSW 6.9 mph - N/A   Clear
8:15 PM 75.2 °F - 71.6 °F 89% 29.97 in 10.0 mi SSW 4.6 mph - N/A   Clear
8:35 PM 75.2 °F - 71.6 °F 89% 29.97 in 10.0 mi SSW 4.6 mph - N/A   Clear
8:55 PM 75.2 °F - 69.8 °F 83% 29.97 in 10.0 mi SW 3.5 mph - N/A   Clear
9:15 PM 75.2 °F - 69.8 °F 83% 29.97 in 10.0 mi South 3.5 mph - N/A   Clear
9:35 PM 75.2 °F - 69.8 °F 83% 29.98 in 10.0 mi SSW 4.6 mph - N/A   Clear
9:55 PM 75.2 °F - 69.8 °F 83% 29.99 in 10.0 mi SSW 3.5 mph - N/A   Scattered Clouds
10:15 PM 75.2 °F - 69.8 °F 83% 30.00 in 10.0 mi SSW 4.6 mph - N/A   Clear
10:35 PM 75.2 °F - 69.8 °F 83% 30.00 in 10.0 mi SSW 4.6 mph - N/A   Clear
10:55 PM 75.2 °F - 69.8 °F 83% 29.99 in 10.0 mi SSW 5.8 mph - N/A   Clear
11:15 PM 75.2 °F - 69.8 °F 83% 29.99 in 10.0 mi SSW 5.8 mph - N/A   Clear
11:35 PM 75.2 °F - 69.8 °F 83% 29.98 in 10.0 mi SSW 5.8 mph - N/A   Clear
11:55 PM 75.2 °F - 69.8 °F 83% 29.98 in 10.0 mi SSW 6.9 mph - N/A   Clear